User: anonymous   Login
Location: Muenchen
(48.1800°N, 11.5800°E)
Time: 19:54:26
(UTC+02:00)
Language:

Cosmos 2233 Rocket - Orbit

View from above orbital plane
View from above orbital plane
View from above satellite
View from above satellite

Ground track
Ground track

The orbit data is extracted from the following two-line orbital elements,

1 22488U 93008B   15215.66070863  .00000144  00000-0  12905-3 0  9993
2 22488 082.9402 227.0697 0024852 344.0365 154.0983 13.77674652130147
Epoch (UTC): 03 August 2015 15:51:25
Eccentricity: 0.0024852
inclination: 82.9402°
perigee height: 954 km
apogee height: 990 km
right ascension of ascending node: 227.0697°
argument of perigee: 344.0365°
revolutions per day: 13.77674652
mean anomaly at epoch: 154.0983°
orbit number at epoch: 13014

The dashed part of the orbit path shows where the satellite is in the earth's shadow,  

DLR